Weather History for Rutland, VT

Change the Weather History Date:

Sunday, October 7, 2012

  Actual Average Record
Temperature  
Mean Temperature 46 °F -  
Max Temperature 52 °F - 86 °F (1963)
Min Temperature 39 °F - 26 °F (1984)
Degree Days  
Heating Degree Days 19    
Month to date heating degree days 54  
Since 1 July heating degree days 285  
Cooling Degree Days 0    
Month to date cooling degree days 0  
Year to date cooling degree days 411  
Moisture  
Dew Point 38 °F    
Average Humidity 77    
Maximum Humidity 100    
Minimum Humidity 54    
Precipitation  
Precipitation 0.13 in - 2.12 in (1972)
Month to date precipitation 0.77  
Year to date precipitation 19.00  
Sea Level Pressure  
Sea Level Pressure 30.01 in    
Wind  
Wind Speed 4 mph (WSW)    
Max Wind Speed 9 mph    
Max Gust Speed -    
Visibility 10 miles    
Events      
T = Trace of Precipitation, MM = Missing Value Source: NWS Daily Summary

Daily Weather History Graph

Daily Weather History Graph

Search for Another Location

Airport:

Trip Planner

Search our weather history database for the weather conditions in past years. The results will help you decide how hot, cold, wet, or windy it might be!

Date:

Astronomy

Oct. 07, 2012 Rise Set
Actual Time 6:56 AM EDT 6:21 PM EDT
Civil Twilight 6:28 AM EDT 6:49 PM EDT
Nautical Twilight 5:55 AM EDT 7:23 PM EDT
Astronomical Twilight 5:21 AM EDT 7:56 PM EDT
Moon 11:23 PM EDT (10/7) 1:39 PM EDT (10/7)
Length of Visible Light 12h 21m
Length of Day
11h 24m
Waning Gibbous, 56% of the Moon is Illuminated
Oct 7
Waning Gibbous
Oct 8
Last Quarter
Oct 15
New
Oct 21
First Quarter
Oct 29
Full

Hourly Weather History & Observations

Time (EDT) Temp. Windchill Dew Point Humidity Pressure Visibility Wind Dir Wind Speed Gust Speed Precip Events Conditions
12:15 AM 46.4 °F 43.5 °F 37.4 °F 71% 29.94 in 10.0 mi WNW 5.8 mph - N/A   Clear
12:35 AM 46.4 °F 43.5 °F 37.4 °F 71% 29.95 in 10.0 mi WNW 5.8 mph - N/A   Clear
12:55 AM 42.8 °F - 37.4 °F 81% 29.96 in 10.0 mi Calm Calm - N/A   Clear
1:35 AM 42.8 °F - 39.2 °F 87% 29.96 in 10.0 mi Calm Calm - N/A   Mostly Cloudy
1:55 AM 44.6 °F - 37.4 °F 76% 29.96 in 10.0 mi Calm Calm - N/A   Overcast
2:15 AM 42.8 °F - 39.2 °F 87% 29.96 in 10.0 mi Calm Calm - N/A   Scattered Clouds
2:35 AM 42.8 °F - 39.2 °F 87% 29.97 in 10.0 mi Calm Calm - N/A   Clear
2:55 AM 39.2 °F 37.0 °F 37.4 °F 93% 29.97 in 10.0 mi SE 3.5 mph - N/A   Clear
3:15 AM 39.2 °F - 37.4 °F 93% 29.97 in 10.0 mi Calm Calm - N/A   Clear
3:35 AM 39.2 °F - 37.4 °F 93% 29.97 in 10.0 mi Calm Calm - N/A   Clear
3:55 AM 42.8 °F - 37.4 °F 81% 29.98 in 10.0 mi Calm Calm - N/A   Clear
4:15 AM 39.2 °F 35.9 °F 35.6 °F 87% 29.99 in 10.0 mi SSW 4.6 mph - N/A   Clear
4:35 AM 42.8 °F 40.1 °F 37.4 °F 81% 29.99 in 10.0 mi SSW 4.6 mph - N/A   Clear
4:55 AM 42.8 °F 40.1 °F 37.4 °F 81% 30.00 in 10.0 mi SSW 4.6 mph - N/A   Clear
5:15 AM 41.0 °F 37.1 °F 37.4 °F 87% 30.01 in 10.0 mi SSW 5.8 mph - N/A   Clear
5:35 AM 39.2 °F 37.0 °F 37.4 °F 93% 30.02 in 10.0 mi SSE 3.5 mph - N/A   Clear
6:15 AM 41.0 °F - 37.4 °F 87% 30.02 in 10.0 mi Calm Calm - N/A   Clear
6:35 AM 39.2 °F 35.0 °F 37.4 °F 93% 30.01 in 10.0 mi NNE 5.8 mph - N/A   Clear
7:15 AM 39.2 °F 37.0 °F 39.2 °F 100% 30.03 in 10.0 mi SE 3.5 mph - N/A   Partly Cloudy
7:55 AM 41.0 °F 39.0 °F 39.2 °F 93% 30.02 in 10.0 mi ESE 3.5 mph - N/A   Mostly Cloudy
8:15 AM 42.8 °F 40.1 °F 39.2 °F 87% 30.04 in 10.0 mi SW 4.6 mph - N/A   Overcast
8:55 AM 42.8 °F 40.1 °F 41.0 °F 93% 30.02 in 10.0 mi East 4.6 mph - N/A   Overcast
9:15 AM 44.6 °F 40.7 °F 39.2 °F 81% 30.03 in 10.0 mi SW 6.9 mph - N/A   Scattered Clouds
9:55 AM 46.4 °F 44.3 °F 39.2 °F 76% 30.03 in 10.0 mi SSE 4.6 mph - N/A   Mostly Cloudy
10:15 AM 46.4 °F 44.3 °F 37.4 °F 71% 30.05 in 10.0 mi WSW 4.6 mph - N/A   Scattered Clouds
10:35 AM 48.2 °F - 37.4 °F 66% 30.05 in 10.0 mi West 4.6 mph - N/A   Mostly Cloudy
10:55 AM 48.2 °F - 37.4 °F 66% 30.05 in 10.0 mi SW 8.1 mph - N/A   Mostly Cloudy
11:15 AM 48.2 °F - 35.6 °F 62% 30.05 in 10.0 mi WSW 5.8 mph - N/A   Overcast
11:35 AM 50.0 °F - 35.6 °F 58% 30.05 in 10.0 mi NW 6.9 mph - N/A   Overcast
11:55 AM 50.0 °F - 35.6 °F 58% 30.06 in 10.0 mi West 9.2 mph - N/A   Overcast
12:15 PM 50.0 °F - 33.8 °F 54% 30.06 in 10.0 mi SW 6.9 mph - N/A   Mostly Cloudy
12:55 PM 48.2 °F - 33.8 °F 58% 30.05 in 10.0 mi WNW 8.1 mph - N/A   Mostly Cloudy
1:15 PM 50.0 °F - 37.4 °F 62% 30.05 in 10.0 mi West 8.1 mph - N/A   Overcast
1:35 PM 50.0 °F - 37.4 °F 62% 30.04 in 10.0 mi WSW 6.9 mph - N/A   Mostly Cloudy
1:55 PM 50.0 °F - 35.6 °F 58% 30.04 in 10.0 mi West 6.9 mph - N/A   Mostly Cloudy
2:15 PM 51.8 °F - 37.4 °F 58% 30.03 in 10.0 mi WSW 6.9 mph - N/A   Mostly Cloudy
2:35 PM 51.8 °F - 35.6 °F 54% 30.02 in 10.0 mi WSW 4.6 mph - N/A   Mostly Cloudy
2:55 PM 51.8 °F - 35.6 °F 54% 30.01 in 10.0 mi SSW 6.9 mph - N/A   Mostly Cloudy
3:15 PM 51.8 °F - 35.6 °F 54% 30.01 in 10.0 mi SW 6.9 mph - N/A   Overcast
3:35 PM 51.8 °F - 35.6 °F 54% 30.00 in 10.0 mi SSW 5.8 mph - N/A   Overcast
3:55 PM 51.8 °F - 35.6 °F 54% 30.00 in 10.0 mi West 3.5 mph - N/A   Overcast
4:15 PM 51.8 °F - 35.6 °F 54% 30.00 in 10.0 mi WSW 3.5 mph - N/A   Overcast
4:35 PM 51.8 °F - 35.6 °F 54% 30.00 in 10.0 mi Calm Calm - N/A   Overcast
4:55 PM 51.8 °F - 37.4 °F 58% 30.00 in 10.0 mi NNW 3.5 mph - N/A   Overcast
5:15 PM 51.8 °F - 37.4 °F 58% 30.00 in 10.0 mi North 4.6 mph - N/A   Overcast
5:35 PM 50.0 °F - 39.2 °F 66% 30.01 in 10.0 mi NNW 3.5 mph - N/A   Overcast
5:55 PM 48.2 °F - 39.2 °F 71% 30.01 in 10.0 mi NNW 3.5 mph - N/A   Overcast
6:15 PM 48.2 °F - 42.8 °F 82% 30.00 in 10.0 mi ENE 4.6 mph - N/A   Overcast
6:35 PM 48.2 °F - 39.2 °F 71% 29.98 in 10.0 mi ENE 4.6 mph - N/A   Overcast
6:55 PM 48.2 °F - 41.0 °F 76% 29.98 in 10.0 mi SE 4.6 mph - N/A   Mostly Cloudy
7:15 PM 48.2 °F - 42.8 °F 82% 30.00 in 10.0 mi WSW 4.6 mph - N/A   Overcast
8:15 PM 46.4 °F - 39.2 °F 76% 30.03 in 10.0 mi Calm Calm - N/A   Overcast
8:55 PM 46.4 °F 45.2 °F 42.8 °F 87% 30.02 in 10.0 mi East 3.5 mph - N/A   Overcast
9:15 PM 46.4 °F - 42.8 °F 87% 30.02 in 10.0 mi Calm Calm - N/A   Overcast
9:35 PM 46.4 °F 45.2 °F 42.8 °F 87% 30.04 in 10.0 mi South 3.5 mph - N/A   Overcast
10:15 PM 44.6 °F 43.1 °F 42.8 °F 93% 30.04 in 10.0 mi WSW 3.5 mph - N/A   Overcast
10:35 PM 44.6 °F - 42.8 °F 93% 30.04 in 10.0 mi Calm Calm - N/A   Mostly Cloudy
10:55 PM 44.6 °F - 42.8 °F 93% 30.05 in 10.0 mi Calm Calm - 0.07 in   Overcast
11:15 PM 44.6 °F - 42.8 °F 93% 30.05 in 10.0 mi Calm Calm - 0.02 in   Mostly Cloudy
11:35 PM 44.6 °F 43.1 °F 42.8 °F 93% 30.06 in 10.0 mi NW 3.5 mph - 0.03 in   Overcast
11:55 PM 44.6 °F 42.2 °F 42.8 °F 93% 30.06 in 10.0 mi North 4.6 mph - 0.04 in   Overcast